User: anonymous   Login
Location: Gad�tanya
(48.0500°N, 20.8500°E)
Time: 07:56:10
(UTC+00:00)
Language:

Cosmos 1758 Rocket - Orbit

View from above orbital plane
View from above orbital plane
View from above satellite
View from above satellite

Ground track
Ground track

The orbit data is extracted from the following two-line orbital elements,

1 16792U 86046B   20272.81821501 +.00000092 +00000-0 +83277-5 0  9991
2 16792 082.4836 153.5105 0022960 305.1477 099.2187 14.83252233831612
Epoch (UTC): 28 September 2020 19:38:13
Eccentricity: 0.0022960
inclination: 82.4836°
perigee height: 603 km
apogee height: 635 km
right ascension of ascending node: 153.5105°
argument of perigee: 305.1477°
revolutions per day: 14.83252233
mean anomaly at epoch: 99.2187°
orbit number at epoch: 83161

The dashed part of the orbit path shows where the satellite is in the earth's shadow,  

DLR